Regional Weather Roundup
Issued by NWS

Home | Current Version | Previous Version | Text Only | Print | Product List | Glossary Off
Versions: 1 2 3 4 5 6 7 8 9 10 11 12 13 14 15 16 17 18 19 20 21 22 23 24 25 26 27 28 29 30 31 32 33 34 35 36 37 38 39 40 41 42 43 44 45 46 47 48 49 50

000
ASUS43 KLSX 290207
RWRMO

WEATHER SUMMARY FOR MISSOURI
NATIONAL WEATHER SERVICE SPRINGFIELD MO
900 PM CDT THU APR 28 2016

NOTE: "FAIR" INDICATES FEW OR NO CLOUDS BELOW 12,000 FEET WITH NO
       SIGNIFICANT WEATHER AND/OR OBSTRUCTIONS TO VISIBILITY.
       CURRENT SKY AND/OR WEATHER CONDITIONS ARE NOT AVAILABLE FOR
       CHILLICOTHE AND FARMINGTON.

MOZ001>031-035>038-043-044-053-054-290300-
...NORTHERN AND WESTERN MISSOURI...

CITY           SKY/WX    TMP DP  RH WIND       PRES   REMARKS
KANSAS CTY INT CLOUDY    51  46  83 N5        30.03R
KANSAS C DTWN  CLEAR     54  45  71 N6        30.02R
LEE`S SUMMIT   CLEAR     52  45  77 N7        30.03R
ST JOSEPH      CLOUDY    53  46  77 NW3       30.04R
CHILLICOTHE      N/A     54  46  74 NW5       30.04R
KIRKSVILLE     CLOUDY    54  45  71 W6        30.03R

$$
MOZ066>068-077>081-088>096-101>105-290300-
...SOUTHWEST MISSOURI...

CITY           SKY/WX    TMP DP  RH WIND       PRES   REMARKS
SPRINGFIELD    CLEAR     62  47  57 NE6       29.98R
JOPLIN         PTCLDY    61  50  67 NE5       29.97R
BRANSON        PTCLDY    66  45  45 CALM      29.98R

$$
MOZ032>034-039>042-045>050-055>058-069>072-290300-
...CENTRAL MISSOURI...

CITY           SKY/WX    TMP DP  RH WIND       PRES   REMARKS
COLUMBIA       CLEAR     56  49  77 N7        30.01R
JEFFERSON CITY CLEAR     59  49  69 NW5       30.00R
ROLLA          CLEAR     59  51  75 N6        29.98R
SEDALIA        CLEAR     55  49  80 N8        30.03R
WARRENSBURG    CLEAR     52  45  76 N6        30.02S
OSAGE BEACH    CLEAR     61  43  51 N3        30.00R

$$
MOZ051-052-059>065-290300-
...EAST CENTRAL MISSOURI...

CITY           SKY/WX    TMP DP  RH WIND       PRES   REMARKS
ST LOUIS INTL  CLEAR     61  49  64 N7        30.00R
SPIRIT OF STL  CLEAR     61  50  67 N3        30.00R
ST CHARLES     CLEAR     60  50  69 NW7       29.99R

$$
MOZ072>076-082>087-097>100-106>115-290300-
...SOUTH CENTRAL AND SOUTHEAST MISSOURI...

CITY           SKY/WX    TMP DP  RH WIND       PRES   REMARKS
CAPE GIRARDEAU CLEAR     63  55  75 CALM      29.95R
FARMINGTON     CLEAR     67  43  41 W3        29.99R
POPLAR BLUFF   CLEAR     65  57  75 CALM      29.96R
WEST PLAINS    CLEAR     62  45  53 N3        29.99R

$$



USA.gov is the U.S. government's official web portal to all federal, state and local government web resources and services.